TimeCST,TemperatureF,Dew PointF,Humidity,Sea Level PressureIn,VisibilityMPH,Wind Direction,Wind SpeedMPH,Gust SpeedMPH,PrecipitationIn,Events,Conditions,WindDirDegrees,DateUTC
12:15 AM,-8.7,-13.5,79,29.50,10.0,Calm,Calm,-,N/A,,Mostly Cloudy,0,2014-01-26 06:15:00
12:35 AM,-8.0,-13.2,78,29.49,10.0,Calm,Calm,-,N/A,,Scattered Clouds,0,2014-01-26 06:35:00
12:55 AM,-7.2,-13.0,76,29.48,10.0,Calm,Calm,-,N/A,,Mostly Cloudy,0,2014-01-26 06:55:00
1:15 AM,-7.2,-13.0,76,29.48,10.0,Calm,Calm,-,N/A,,Mostly Cloudy,0,2014-01-26 07:15:00
1:35 AM,-7.1,-12.5,77,29.48,10.0,Calm,Calm,-,N/A,,Clear,0,2014-01-26 07:35:00
1:55 AM,-6.9,-12.5,77,29.49,10.0,Calm,Calm,-,N/A,,Scattered Clouds,0,2014-01-26 07:55:00
2:15 AM,-6.7,-12.1,77,29.47,10.0,Calm,Calm,-,N/A,,Mostly Cloudy,0,2014-01-26 08:15:00
2:35 AM,-6.2,-11.7,77,29.47,10.0,Calm,Calm,-,N/A,,Overcast,0,2014-01-26 08:35:00
2:55 AM,-5.8,-11.4,77,29.46,10.0,Calm,Calm,-,N/A,,Overcast,0,2014-01-26 08:55:00
3:15 AM,-5.6,-11.6,75,29.44,5.0,Calm,Calm,-,N/A,Snow,Light Snow,0,2014-01-26 09:15:00
3:35 AM,-5.3,-11.2,76,29.44,5.0,Calm,Calm,-,N/A,Snow,Light Snow,0,2014-01-26 09:35:00
3:55 AM,-5.3,-10.5,78,29.44,3.0,Calm,Calm,-,N/A,Snow,Light Snow,0,2014-01-26 09:55:00
4:15 AM,-5.1,-10.3,78,29.43,2.0,Calm,Calm,-,N/A,Snow,Light Snow,0,2014-01-26 10:15:00
4:35 AM,-4.9,-9.6,80,29.41,2.0,Calm,Calm,-,N/A,Snow,Light Snow,0,2014-01-26 10:35:00
4:55 AM,-4.5,-9.4,80,29.40,1.5,Calm,Calm,-,N/A,Snow,Light Snow,0,2014-01-26 10:55:00
5:15 AM,-4.4,-9.0,80,29.39,2.0,Calm,Calm,-,N/A,Snow,Light Snow,0,2014-01-26 11:15:00
5:35 AM,-4.2,-8.9,80,29.38,3.0,Calm,Calm,-,N/A,Snow,Light Snow,0,2014-01-26 11:35:00
5:55 AM,-4.0,-8.5,81,29.38,3.0,Calm,Calm,-,N/A,Snow,Light Snow,0,2014-01-26 11:55:00
6:15 AM,-3.8,-8.5,80,29.37,5.0,South,3.5,-,N/A,Snow,Light Snow,170,2014-01-26 12:15:00
6:35 AM,-3.6,-8.1,81,29.36,7.0,Calm,Calm,-,N/A,Snow,Light Snow,0,2014-01-26 12:35:00
6:55 AM,-3.3,-8.0,80,29.36,5.0,Calm,Calm,-,N/A,Snow,Light Snow,0,2014-01-26 12:55:00
7:15 AM,-3.3,-7.8,81,29.31,4.0,SE,3.5,-,N/A,Snow,Light Snow,130,2014-01-26 13:15:00
7:35 AM,-3.3,-7.8,81,29.31,2.0,Calm,Calm,-,N/A,Snow,Light Snow,0,2014-01-26 13:35:00
7:55 AM,-2.7,-7.6,80,29.29,2.5,Calm,Calm,-,N/A,Snow,Light Snow,0,2014-01-26 13:55:00
8:15 AM,-2.2,-7.1,80,29.30,2.5,Calm,Calm,-,N/A,Snow,Light Snow,0,2014-01-26 14:15:00
8:35 AM,-1.7,-6.7,79,29.30,4.0,SSE,3.5,-,N/A,Snow,Light Snow,150,2014-01-26 14:35:00
8:55 AM,-1.3,-6.5,79,29.30,1.5,South,3.5,-,N/A,Snow,Light Snow,180,2014-01-26 14:55:00
9:15 AM,-0.9,-6.0,79,29.29,0.8,South,4.6,-,N/A,Snow,Light Snow,180,2014-01-26 15:15:00
9:35 AM,-0.6,-5.8,79,29.28,1.0,South,4.6,-,N/A,Snow,Light Snow,180,2014-01-26 15:35:00
9:55 AM,-0.4,-5.8,78,29.26,1.8,South,5.8,-,N/A,Snow,Light Snow,190,2014-01-26 15:55:00
10:15 AM,0.5,-5.3,77,29.24,1.8,SSE,5.8,-,N/A,Snow,Light Snow,160,2014-01-26 16:15:00
10:35 AM,1.0,-5.3,75,29.23,3.0,South,9.2,-,N/A,Snow,Light Snow,170,2014-01-26 16:35:00
10:55 AM,1.4,-5.1,74,29.24,5.0,South,6.9,-,N/A,Snow,Light Snow,190,2014-01-26 16:55:00
11:15 AM,1.8,-4.4,76,29.23,2.0,South,6.9,-,N/A,Snow,Light Snow,190,2014-01-26 17:15:00
11:35 AM,1.9,-4.0,76,29.22,2.0,SSW,4.6,-,N/A,Snow,Light Snow,200,2014-01-26 17:35:00
11:55 AM,2.3,-4.0,75,29.21,4.0,SW,3.5,-,N/A,Snow,Light Snow,230,2014-01-26 17:55:00
12:15 PM,2.3,-4.0,75,29.20,5.0,SW,5.8,-,N/A,Snow,Light Snow,230,2014-01-26 18:15:00
12:35 PM,3.0,-3.3,75,29.19,5.0,SW,4.6,-,N/A,Snow,Light Snow,220,2014-01-26 18:35:00
12:55 PM,3.2,-3.1,75,29.18,5.0,WSW,3.5,-,N/A,Snow,Light Snow,240,2014-01-26 18:55:00
1:15 PM,3.6,-2.9,74,29.18,3.0,West,3.5,-,N/A,Snow,Light Snow,270,2014-01-26 19:15:00
1:35 PM,3.7,-2.6,75,29.19,3.0,West,3.5,-,N/A,Snow,Light Snow,270,2014-01-26 19:35:00
1:55 PM,4.1,-2.0,76,29.19,2.5,WNW,4.6,-,N/A,Snow,Light Snow,300,2014-01-26 19:55:00
2:15 PM,4.1,-1.7,77,29.21,1.5,WNW,8.1,-,N/A,Snow,Light Snow,290,2014-01-26 20:15:00
2:35 PM,4.1,-1.7,77,29.21,1.2,WNW,5.8,-,N/A,Snow,Light Snow,290,2014-01-26 20:35:00
2:55 PM,4.1,-1.7,77,29.22,1.5,WNW,5.8,-,N/A,Snow,Light Snow,300,2014-01-26 20:55:00
3:15 PM,4.1,-1.5,78,29.24,1.5,NW,5.8,-,N/A,Snow,Light Snow,310,2014-01-26 21:15:00
3:35 PM,4.1,-1.3,78,29.26,2.0,NW,4.6,-,N/A,Snow,Light Snow,310,2014-01-26 21:35:00
3:55 PM,4.1,-2.4,75,29.27,3.0,NW,9.2,-,N/A,Snow,Light Snow,320,2014-01-26 21:55:00
4:15 PM,4.1,-1.5,78,29.29,1.5,NW,5.8,-,N/A,Snow,Light Snow,320,2014-01-26 22:15:00
4:35 PM,3.7,-1.3,80,29.30,0.8,NW,6.9,-,N/A,Snow,Light Snow,320,2014-01-26 22:35:00
4:55 PM,3.2,-1.5,81,29.31,0.8,NW,6.9,-,N/A,Snow,Light Snow,310,2014-01-26 22:55:00
5:15 PM,3.0,-1.5,82,29.33,1.2,NW,6.9,-,N/A,Snow,Light Snow,310,2014-01-26 23:15:00
5:35 PM,2.3,-3.3,77,29.35,4.0,NW,9.2,-,N/A,Snow,Light Snow,320,2014-01-26 23:35:00
5:55 PM,2.3,-3.3,77,29.36,4.0,NW,8.1,-,N/A,Snow,Light Snow,320,2014-01-26 23:55:00
6:15 PM,2.1,-3.3,78,29.38,5.0,NW,6.9,-,N/A,,Haze,320,2014-01-27 00:15:00
6:35 PM,2.1,-3.1,79,29.39,3.0,NW,5.8,-,N/A,Snow,Light Snow,320,2014-01-27 00:35:00
6:55 PM,1.8,-3.5,79,29.41,4.0,NNW,8.1,-,N/A,Snow,Light Snow,330,2014-01-27 00:55:00
7:15 PM,1.8,-3.6,78,29.42,5.0,North,13.8,19.6,N/A,,Haze,350,2014-01-27 01:15:00
7:35 PM,1.4,-3.8,79,29.44,5.0,North,10.4,-,N/A,Snow,Light Snow,350,2014-01-27 01:35:00
7:55 PM,1.4,-4.4,77,29.46,4.0,North,11.5,18.4,N/A,,Haze,350,2014-01-27 01:55:00
8:15 PM,1.0,-4.4,78,29.47,2.5,North,13.8,21.9,N/A,Snow,Light Snow,350,2014-01-27 02:15:00
8:35 PM,1.0,-4.2,79,29.49,1.5,NNW,13.8,20.7,N/A,Snow,Light Snow,330,2014-01-27 02:35:00
8:55 PM,0.3,-5.3,77,29.51,2.0,NNW,16.1,21.9,N/A,Snow,Light Snow,330,2014-01-27 02:55:00
9:15 PM,-0.4,-6.0,77,29.53,2.0,NNW,10.4,23.0,N/A,Snow,Light Snow,340,2014-01-27 03:15:00
9:35 PM,-0.8,-6.7,76,29.55,2.0,NNW,11.5,21.9,N/A,Snow,Light Snow,340,2014-01-27 03:35:00
9:55 PM,-1.3,-7.6,75,29.57,2.0,NNW,9.2,26.5,N/A,Snow,Light Snow,330,2014-01-27 03:55:00
10:15 PM,-1.8,-8.3,74,29.58,2.0,North,17.3,26.5,N/A,Snow,Light Snow,350,2014-01-27 04:15:00
10:35 PM,-2.7,-9.4,73,29.60,2.5,NNW,15.0,25.3,N/A,Snow,Light Snow,340,2014-01-27 04:35:00
10:55 PM,-3.5,-9.6,75,29.61,4.0,NNW,9.2,-,N/A,Snow,Light Snow,340,2014-01-27 04:55:00
11:15 PM,-4.0,-10.5,74,29.63,2.0,NNW,10.4,24.2,N/A,Snow,Light Snow,340,2014-01-27 05:15:00
11:35 PM,-4.4,-10.5,75,29.64,3.0,NNW,11.5,-,N/A,Snow,Light Snow,330,2014-01-27 05:35:00
11:55 PM,-4.4,-10.3,76,29.65,2.0,NNW,11.5,-,N/A,Snow,Light Snow,330,2014-01-27 05:55:00